SL-14 R/B

Satellite information

Favourite Embed

Satellite Type and Status

ROCKET BODYIN ORBIT

Key statistics

Satellite SL-14 R/B at a glance.

Uptime

14299

Days in orbit

Revolutions

≈ 14.9

Per day

Orbit

LEO

Low Earth Orbit

Inclination

82.6

Latest

Satellite identification and parameters

Extended collection of information and parameters for SL-14 R/B.

Object identification

Identified? True

Debris? False

Object name: SL-14 R/B

International designator: 1986-034B

Object number (NORAD): 16720

Object ID (CCSDS): 16720

Country: COMMONWEALTH OF INDEPENDENT STATES (CIS)

Current information (Y/N): Y

RCS size: LARGE

Orbital parameters

Period: 96.946 minutes

Inclination: 82.553 deg

SMA: 6990.582 km

Apoapsis: 627.019 km

Periapsis: 597.876 km

RAAN: 17.2749 deg

Eccentricy: 0.0020844

Argument of periapsis: 109.5639 deg

Mean anomaly: 310.2021 deg

Mean motion: 14.85363431 rev/day

Mean motion (dot): 0.00000359 rev/day2

B* drag term: 0.000038737 1/REarth

Two-line elements (TLE)

Creation date: July 6, 2025, 10:46 p.m.

Reference frame: TEME

Reference center: EARTH

Epoch: July 6, 2025, 2:11 p.m. UTC

TLE line 0: 0 SL-14 R/B

TLE line 1: 1 16720U 86034B 25187.59153265 .00000359 00000-0 38737-4 0 9995

TLE line 2: 2 16720 82.5530 17.2749 0020844 109.5639 310.2021 14.85363431115422

Live tracking on map

Real-time ground track for satellite SL-14 R/B.

In-orbit conjunctions

A list of the most updated potential collisions computed for object SL-14 R/B.

Target Orbit TCA Probability of collision Miss distance Type
FENGYUN 1C DEB SSO 2025-04-11 01:25:33 0.0001285796 418.0 (m) DEBRIS
CZ-2D DEB SSO 2024-09-19 01:41:35 0.0006380677 114.0 (m) DEBRIS

Associated space launch

Tselina-D satellites provided detailed observation of radio sources detected by the smaller Tselina-O satellites as part of the Tselina ELINT system.

SL-14 R/B was lifted into orbit during the mission ‘Tsiklon-3 | Tselina-D 55’, on board a Tsiklon-3 space rocket.

The launch took place on May 15, 1986, 4:26 a.m. from 32/1.

For more information about the launch, click the button.

Launch to space Tsiklon-3 | Tselina-D 55
Tsiklon-3 | Tselina-D 55

Agency: N/A

Status: Launch Successful

Launch date: May 15, 1986, 4:26 a.m. UTC

Rocket: Tsiklon-3

Launch pad: 32/1

Location: Plesetsk Cosmodrome, Russian Federation

...

Latest news about this satellite

There are no fresh news available about this satellite. Check back as we update our databases every day.


Newsletter sign-up

Weekly statistics, charts and insights to help you stay on top of the space industry.